Location: Bad Salzschlirf
(50.3750°N, 9.3000°E)
Time: 21:57:06
(UTC+01:00)

ISS - Pass Details

Date: 10 November 2019
Orbit: 412 x 421 km, 51.6° (Epoch: 15 November)

Event Time Altitude Azimuth Distance (km) Brightness Sun altitude
Exits shadow 05:00:39 31° 142° (SE) 772 -2.2 -23.5°
Drops below altitude 10° 05:02:37 10° 127° (SE) 1,500 -0.3 -23.2°
Sets 05:04:44 0° 123° (ESE) 2,361 1.0 -22.9°
